Regional Weather Roundup
Issued by NWS Sterling, VA

Home | Current Version | Previous Version | Text Only | Print | Product List | Glossary On
Versions: 1 2 3 4 5 6 7 8 9 10 11 12 13 14 15 16 17 18 19 20 21 22 23 24 25 26 27
000
ASUS41 KLWX 231511
RWRLWX

REGIONAL WEATHER ROUNDUP
NATIONAL WEATHER SERVICE BALTIMORE MD/WASHINGTON DC
1100 AM EDT WED AUG 23 2017

Note: "FAIR" indicates few or no clouds below 12,000 feet
with no significant weather and/or obstructions to visibility.
 TC=TEMPERATURE CELSIUS

 * =Non NWS site. Station does not report precipitation (e.g. rain,
    snow, etc.), thunder, or fog.

DCZ001-MDZ009-015-VAZ040>042-051-053>054-231600-
WASHINGTON METRO

CITY           SKY/WX    TMP DP  RH WIND       PRES   REMARKS
WASHINGTON NAT CLOUDY    79  70  74 NW6       29.89R
DULLES         PTSUNNY   78  66  66 N9        29.90R
ANDREWS AFB    CLOUDY    78  67  70 N7        29.88R
FT BELVOIR     CLOUDY    78  66  67 NW9       29.89R
QUANTICO       CLOUDY    78  70  76 N5        29.89R
COLLEGE PARK*  CLOUDY    77  67  70 NW7       29.89R
LEESBURG*      CLOUDY    79  68  69 N9        29.92R
MANASSAS*      CLOUDY    77  68  73 N12       29.90R
GAITHERSBURG*  CLOUDY    77  67  71 VRB3      29.92R

$$

MDZ006>007-011-014-231600-
BALTIMORE METRO

CITY           SKY/WX    TMP DP  RH WIND       PRES   REMARKS
BWI AIRPORT    CLOUDY    79  69  71 NW7       29.88R
MD SCIENCE CTR   N/A     81  60  48 MISG      29.89R
MARTIN STATE   PTSUNNY   79  70  73 NW5       29.89R
ANNAPOLIS      CLOUDY    81  74  79 VRB5      29.87R
FORT MEADE*    CLOUDY    79  68  69 NW7       29.91R

$$

MDZ012-015-019>023-231600-
MARYLAND EASTERN SHORE

CITY           SKY/WX    TMP DP  RH WIND       PRES   REMARKS
OCEAN CITY     MOSUNNY   85  73  67 N6        29.86R HX  91
SALISBURY      SUNNY     85  72  65 N8        29.85S HX  91
BAY BRIDGE AP* CLOUDY    79  70  73 N8        29.87S
CAMBRIDGE*     MOSUNNY   81  70  69 N6        29.86S
EASTON*        PTSUNNY   81  70  69 N6        29.90S

$$

MDZ017>025-231600-
SOUTHERN MARYLAND

CITY           SKY/WX    TMP DP  RH WIND       PRES   REMARKS
PATUXENT RIVER PTSUNNY   82  71  69 N9        29.86R
ST INIGOES     MOSUNNY   84  71  65 VRB5      29.86R
LEONARDTOWN*   PTSUNNY   79  68  69 N3        29.89S

$$

MDZ003>005-231600-
NORTH CENTRAL MARYLAND

CITY           SKY/WX    TMP DP  RH WIND       PRES   REMARKS
FREDERICK*     MOSUNNY   82  61  47 N8        29.93R
HAGERSTOWN APT MOSUNNY   77  62  59 NW10      29.93R
WESTMINSTER*   MOSUNNY   79  57  47 N8        29.92R

$$

MDZ501>502-231600-
WESTERN MARYLAND

CITY           SKY/WX    TMP DP  RH WIND       PRES   REMARKS
OAKLAND*       MOSUNNY   63  55  77 NW5       30.00R
CUMBERLAND*    CLOUDY    73  63  68 CALM      29.98R

$$

VAZ025>031-231600-
SHENANDOAH VALLEY

CITY           SKY/WX    TMP DP  RH WIND       PRES   REMARKS
WINCHESTER*    MOSUNNY   75  63  64 NW9       29.93S
FRONT ROYAL*   MOSUNNY   75  64  69 N6        29.92R
LURAY*         CLOUDY    77  66  69 NE5       29.93S
NEW MARKET*    PTSUNNY   80  66  62 NE8       29.92S
STAUNTON*      CLOUDY    75  68  78 CALM      29.96R
WAYNESBORO*    CLOUDY    75  69  80 NW6       29.95R

$$

WVZ021-048>050-054>055-231600-
EASTERN WEST VIRGINIA PANHANDLE

CITY           SKY/WX    TMP DP  RH WIND       PRES   REMARKS
MARTINSBURG    MOSUNNY   77  59  53 VRB5      29.92R
PETERSBURG*    MOSUNNY   79  67  68 CALM      29.94S

$$

VAZ036>039-050-231600-
CENTRAL FOOTHILLS

CITY           SKY/WX    TMP DP  RH WIND       PRES   REMARKS
CHARLOTTESVILL CLOUDY    79  71  76 E3        29.91R
CULPEPER*      CLOUDY    77  69  75 N6        29.92R
ORANGE*        CLOUDY    73  70  88 NE6       29.90S
GORDONSVILLE*  CLOUDY    76  69  80 NE8       29.90S
WARRENTON*     CLOUDY    77  65  66 N6        29.90S

$$

VAZ055>057-231600-
NORTH AND CENTRAL PIEDMONT

CITY           SKY/WX    TMP DP  RH WIND       PRES   REMARKS
FREDERICKSBRG* CLOUDY    77  70  78 N6        29.89R
STAFFORD*      CLOUDY    76  71  86 N9        29.94R

$$

NCZ024-NYZ072-PAZ021-071-VAZ022-071-231600-
OTHER REGIONAL OBSERVATIONS

CITY           SKY/WX    TMP DP  RH WIND       PRES   REMARKS
NEW YORK CITY  MOSUNNY   76  55  48 VRB6      29.88R
PHILADELPHIA   PTSUNNY   78  57  48 N10       29.87R
PITTSBURGH     MOSUNNY   70  55  59 NW12      29.98R
ROANOKE        CLOUDY    77  69  76 W8        29.96R
RICHMOND       MOSUNNY   85  74  69 N8        29.87R HX  92
RALEIGH        MOSUNNY   86  74  67 W7        29.90S HX  94

$$

ANZ530>537-231600-
MARINE OBSERVATIONS

STATION/POSITION TIME  TEMP    WIND        PRES
                       AIR SEA DIR/SP/G
                 (UTC) (F)     (DEG/KT/KT) (MB)
THOMAS PT LIGHT  1500   78 81  360/  9/  9   N/A
BALT KEY BRIDGE  1448   78      20/ 11/ 12 1011.5R
COVE POINT       1448   78      10/ 11/ 14 1012.0R
LEWISETTA        1448   82 83  360/  6/  9 1011.2R
SOLOMONS ISLAND  1448   80 82   10/  9/ 12   N/A
PINEY POINT      1448          360/  6/  8   N/A

$$





USA.gov is the U.S. government's official web portal to all federal, state and local government web resources and services.